EXS47RT EGKK-LEPA

Flight info

Callsign EXS47RT
Flight time 1h 54m
Altitude 37000
Route BOGNA L612 BENBO Y47 DRAKE L151 SITET UN859 SOPIL DCT BALAN DCT EVPOK DCT NARAK DCT GAI DCT LOMRA DCT ROCAN DCT IBRAP DCT LUKEV DCT LORES
Aircraft A21N/M-SDE2E3FGHIRWXY/LB1

Departure

Time 2026-05-03 20:50
Airport London Gatwick Airport (EGKK)

Arrival

Time 2026-05-03 22:44
Airport Palma de Mallorca Airport (LEPA)
Time Latitude Longitude Altitude Speed Heading
2026-05-03 20:40 51.15733 -0.17711 215 ft 0 kts 77°
2026-05-03 20:44 51.15734 -0.17709 215 ft 1 kts 77°
2026-05-03 20:44 51.15736 -0.17693 215 ft 2 kts 77°
2026-05-03 20:44 51.15741 -0.17658 213 ft 4 kts 77°
2026-05-03 20:44 51.15749 -0.17605 212 ft 6 kts 77°
2026-05-03 20:45 51.15754 -0.17538 213 ft 6 kts 105°
2026-05-03 20:45 51.15723 -0.17500 215 ft 6 kts 163°
2026-05-03 20:45 51.15666 -0.17480 213 ft 11 kts 168°
2026-05-03 20:45 51.15572 -0.17447 217 ft 16 kts 167°
2026-05-03 20:46 51.15462 -0.17407 207 ft 17 kts 167°
2026-05-03 20:46 51.15344 -0.17366 212 ft 18 kts 168°
2026-05-03 20:46 51.15237 -0.17305 210 ft 16 kts 150°
2026-05-03 20:46 51.15185 -0.17249 217 ft 0 kts 143°
2026-05-03 20:48 51.15183 -0.17247 179 ft 1 kts 143°
2026-05-03 20:48 51.15168 -0.17231 219 ft 4 kts 148°
2026-05-03 20:48 51.15127 -0.17218 215 ft 12 kts 188°
2026-05-03 20:48 51.15053 -0.17315 218 ft 15 kts 250°
2026-05-03 20:49 51.15001 -0.17674 215 ft 61 kts 258°
2026-05-03 20:49 51.14869 -0.18639 214 ft 118 kts 257°
2026-05-03 20:49 51.14660 -0.20197 216 ft 167 kts 260°
2026-05-03 20:49 51.14459 -0.22029 643 ft 174 kts 259°
2026-05-03 20:50 51.14224 -0.23980 1054 ft 186 kts 258°
2026-05-03 20:50 51.13955 -0.26076 1465 ft 199 kts 258°
2026-05-03 20:50 51.13680 -0.28277 2012 ft 207 kts 258°
2026-05-03 20:50 51.13344 -0.30569 2651 ft 219 kts 255°
2026-05-03 20:51 51.12922 -0.32968 3323 ft 231 kts 252°
2026-05-03 20:51 51.12459 -0.35468 4093 ft 239 kts 256°
2026-05-03 20:51 51.12067 -0.38058 4859 ft 242 kts 252°
2026-05-03 20:51 51.11274 -0.40404 5658 ft 244 kts 225°
2026-05-03 20:52 51.10381 -0.41473 6189 ft 244 kts 204°
2026-05-03 20:52 51.08725 -0.42004 6976 ft 245 kts 180°
2026-05-03 20:52 51.07009 -0.41865 7696 ft 252 kts 176°
2026-05-03 20:52 51.05382 -0.41626 8170 ft 265 kts 175°
2026-05-03 20:53 51.03510 -0.41344 8838 ft 273 kts 176°
2026-05-03 20:53 51.01598 -0.41072 9643 ft 277 kts 176°
2026-05-03 20:53 50.99663 -0.40809 10402 ft 280 kts 176°
2026-05-03 20:53 50.97716 -0.40553 11192 ft 283 kts 176°
2026-05-03 20:54 50.95746 -0.40298 11990 ft 285 kts 176°
2026-05-03 20:54 50.91760 -0.39789 13616 ft 289 kts 176°
2026-05-03 20:54 50.89746 -0.39533 14337 ft 292 kts 177°
2026-05-03 20:55 50.87709 -0.39276 15022 ft 296 kts 177°
2026-05-03 20:55 50.85646 -0.39015 15700 ft 299 kts 177°
2026-05-03 20:55 50.83578 -0.38478 16356 ft 305 kts 164°
2026-05-03 20:55 50.81638 -0.37053 17014 ft 311 kts 152°
2026-05-03 20:56 50.79798 -0.35208 17685 ft 315 kts 149°
2026-05-03 20:56 50.77963 -0.33278 18306 ft 318 kts 149°
2026-05-03 20:56 50.76115 -0.31331 18904 ft 321 kts 150°
2026-05-03 20:56 50.74247 -0.29377 19519 ft 323 kts 150°
2026-05-03 20:57 50.72365 -0.27420 20140 ft 325 kts 150°
2026-05-03 20:57 50.70470 -0.25453 20733 ft 327 kts 150°
2026-05-03 20:57 50.68553 -0.23455 21145 ft 336 kts 150°
2026-05-03 20:57 50.66567 -0.21380 21390 ft 348 kts 150°
2026-05-03 20:58 50.64518 -0.19235 21617 ft 360 kts 150°
2026-05-03 20:58 50.62394 -0.17012 21853 ft 372 kts 150°
2026-05-03 20:58 50.60206 -0.14722 22081 ft 383 kts 150°
2026-05-03 20:58 50.57957 -0.12371 22348 ft 392 kts 150°
2026-05-03 20:59 50.55664 -0.09975 22758 ft 397 kts 150°
2026-05-03 20:59 50.53354 -0.07562 23233 ft 400 kts 150°
2026-05-03 20:59 50.51029 -0.05136 23682 ft 403 kts 150°
2026-05-03 20:59 50.48601 -0.02951 24070 ft 402 kts 158°
2026-05-03 21:00 50.45999 -0.01399 24453 ft 400 kts 168°
2026-05-03 21:00 50.44201 -0.00797 24692 ft 398 kts 175°
2026-05-03 21:00 50.40510 -0.00746 25178 ft 397 kts 189°
2026-05-03 21:00 50.37785 -0.01425 25595 ft 397 kts 192°
2026-05-03 21:01 50.35083 -0.02321 25972 ft 398 kts 194°
2026-05-03 21:01 50.32386 -0.03323 26325 ft 399 kts 195°
2026-05-03 21:01 50.29684 -0.04360 26662 ft 401 kts 195°
2026-05-03 21:01 50.26959 -0.05389 26990 ft 403 kts 194°
2026-05-03 21:02 50.24178 -0.06077 27313 ft 407 kts 187°
2026-05-03 21:02 50.21336 -0.06137 27633 ft 411 kts 178°
2026-05-03 21:02 50.18491 -0.05462 27922 ft 417 kts 169°
2026-05-03 21:02 50.15718 -0.04054 28266 ft 421 kts 163°
2026-05-03 21:03 50.12999 -0.02329 28568 ft 424 kts 161°
2026-05-03 21:03 50.10265 -0.00605 28940 ft 421 kts 165°
2026-05-03 21:03 50.07524 0.00748 29336 ft 418 kts 167°
2026-05-03 21:03 50.04734 0.02011 29759 ft 416 kts 168°
2026-05-03 21:04 50.01949 0.03190 30130 ft 414 kts 169°
2026-05-03 21:04 49.99163 0.04315 30445 ft 413 kts 170°
2026-05-03 21:04 49.96378 0.05410 30731 ft 412 kts 170°
2026-05-03 21:04 49.93603 0.06489 31074 ft 410 kts 171°
2026-05-03 21:05 49.90845 0.07559 31388 ft 408 kts 171°
2026-05-03 21:05 49.88096 0.08627 31660 ft 407 kts 171°
2026-05-03 21:05 49.85347 0.09696 31912 ft 407 kts 171°
2026-05-03 21:05 49.82603 0.10765 32165 ft 406 kts 171°
2026-05-03 21:06 49.79863 0.11834 32415 ft 406 kts 171°
2026-05-03 21:06 49.77128 0.12901 32666 ft 405 kts 171°
2026-05-03 21:06 49.74396 0.13966 32894 ft 404 kts 171°
2026-05-03 21:06 49.71679 0.15025 33173 ft 402 kts 171°
2026-05-03 21:07 49.68967 0.16082 33442 ft 401 kts 171°
2026-05-03 21:07 49.66270 0.17149 33653 ft 401 kts 171°
2026-05-03 21:07 49.63604 0.18218 33837 ft 401 kts 171°
2026-05-03 21:07 49.60911 0.19305 34020 ft 400 kts 171°
2026-05-03 21:08 49.58218 0.20394 34160 ft 400 kts 170°
2026-05-03 21:08 49.55518 0.21484 34261 ft 401 kts 170°
2026-05-03 21:08 49.50105 0.23662 34477 ft 402 kts 171°
2026-05-03 21:09 49.47402 0.24747 34647 ft 401 kts 171°
2026-05-03 21:09 49.44696 0.25831 34702 ft 402 kts 171°
2026-05-03 21:09 49.39259 0.28001 34834 ft 405 kts 171°
2026-05-03 21:10 49.33792 0.30180 34972 ft 407 kts 170°
2026-05-03 21:10 49.28294 0.32411 35113 ft 410 kts 170°
2026-05-03 21:11 49.25543 0.33567 35214 ft 410 kts 169°
2026-05-03 21:11 49.22790 0.34734 35262 ft 411 kts 169°
2026-05-03 21:11 49.17258 0.37078 35377 ft 414 kts 169°
2026-05-03 21:12 49.11701 0.39420 35500 ft 415 kts 169°
2026-05-03 21:12 49.06110 0.41763 35621 ft 417 kts 169°
2026-05-03 21:13 49.00516 0.44102 35729 ft 418 kts 170°
2026-05-03 21:13 48.94907 0.46441 35866 ft 419 kts 170°
2026-05-03 21:14 48.89273 0.48783 35960 ft 420 kts 170°
2026-05-03 21:14 48.83621 0.51129 36039 ft 422 kts 169°
2026-05-03 21:15 48.77982 0.53451 36131 ft 423 kts 170°
2026-05-03 21:15 48.72279 0.55710 36218 ft 424 kts 170°
2026-05-03 21:16 48.66552 0.57943 36304 ft 426 kts 170°
2026-05-03 21:16 48.60813 0.60179 36434 ft 426 kts 171°
2026-05-03 21:17 48.56041 0.62039 36484 ft 427 kts 170°
2026-05-03 21:17 48.49311 0.64691 36581 ft 429 kts 170°
2026-05-03 21:18 48.43543 0.67038 36660 ft 430 kts 169°
2026-05-03 21:18 48.37774 0.69394 36774 ft 430 kts 169°
2026-05-03 21:19 48.31990 0.71743 36830 ft 431 kts 169°
2026-05-03 21:19 48.26229 0.74071 36899 ft 432 kts 170°
2026-05-03 21:20 48.20408 0.76386 36946 ft 433 kts 170°
2026-05-03 21:20 48.14577 0.78675 36947 ft 433 kts 170°
2026-05-03 21:21 48.08755 0.80956 36942 ft 433 kts 170°
2026-05-03 21:21 48.02931 0.83235 36942 ft 432 kts 170°
2026-05-03 21:22 47.97110 0.85510 36940 ft 432 kts 170°
2026-05-03 21:22 47.91275 0.87784 36956 ft 435 kts 170°
2026-05-03 21:23 47.85410 0.90064 36945 ft 435 kts 170°
2026-05-03 21:23 47.79551 0.92339 36932 ft 435 kts 170°
2026-05-03 21:24 47.73699 0.94606 36949 ft 434 kts 170°
2026-05-03 21:24 47.67849 0.96865 36951 ft 434 kts 170°
2026-05-03 21:25 47.62001 0.99118 36949 ft 434 kts 170°
2026-05-03 21:25 47.56151 1.01367 36949 ft 434 kts 171°
2026-05-03 21:26 47.50312 1.03606 36953 ft 433 kts 171°
2026-05-03 21:26 47.44470 1.05738 36952 ft 430 kts 175°
2026-05-03 21:27 47.38560 1.06359 36954 ft 424 kts 184°
2026-05-03 21:27 47.32672 1.06301 36957 ft 423 kts 185°
2026-05-03 21:28 47.26790 1.06113 36957 ft 422 kts 185°
2026-05-03 21:28 47.20917 1.05938 36960 ft 422 kts 185°
2026-05-03 21:29 47.15082 1.05790 36956 ft 422 kts 185°
2026-05-03 21:29 47.09204 1.05653 36959 ft 422 kts 185°
2026-05-03 21:30 47.03334 1.05517 36960 ft 422 kts 186°
2026-05-03 21:30 46.97462 1.05309 36965 ft 422 kts 186°
2026-05-03 21:31 46.91595 1.05047 36968 ft 422 kts 186°
2026-05-03 21:31 46.85724 1.04784 36968 ft 422 kts 186°
2026-05-03 21:32 46.79858 1.04530 36960 ft 422 kts 186°
2026-05-03 21:32 46.73985 1.04280 36963 ft 422 kts 186°
2026-05-03 21:33 46.68111 1.04031 36966 ft 422 kts 186°
2026-05-03 21:33 46.62241 1.03783 36975 ft 422 kts 186°
2026-05-03 21:34 46.56363 1.03535 36964 ft 422 kts 186°
2026-05-03 21:34 46.50471 1.03891 36976 ft 429 kts 175°
2026-05-03 21:35 46.44591 1.05591 36982 ft 432 kts 173°
2026-05-03 21:35 46.38726 1.07570 36986 ft 433 kts 172°
2026-05-03 21:36 46.32869 1.09576 36982 ft 433 kts 172°
2026-05-03 21:36 46.27003 1.11552 36986 ft 432 kts 172°
2026-05-03 21:37 46.21139 1.13503 36988 ft 432 kts 172°
2026-05-03 21:37 46.15283 1.15441 37003 ft 432 kts 172°
2026-05-03 21:38 46.09425 1.17377 37010 ft 432 kts 172°
2026-05-03 21:38 46.03568 1.19309 36995 ft 431 kts 172°
2026-05-03 21:39 45.97705 1.21238 37019 ft 433 kts 172°
2026-05-03 21:39 45.91823 1.23169 37019 ft 434 kts 172°
2026-05-03 21:40 45.85981 1.25085 37021 ft 434 kts 172°
2026-05-03 21:40 45.80094 1.27011 37021 ft 434 kts 172°
2026-05-03 21:41 45.74214 1.28930 37020 ft 434 kts 172°
2026-05-03 21:41 45.68326 1.30847 37020 ft 434 kts 172°
2026-05-03 21:42 45.63425 1.32440 37022 ft 434 kts 172°
2026-05-03 21:42 45.57528 1.34353 37018 ft 434 kts 172°
2026-05-03 21:43 45.51595 1.36273 37018 ft 435 kts 172°
2026-05-03 21:43 45.45713 1.38172 37017 ft 437 kts 172°
2026-05-03 21:44 45.39745 1.40095 37020 ft 436 kts 172°
2026-05-03 21:44 45.33823 1.42001 37021 ft 437 kts 172°
2026-05-03 21:45 45.27895 1.43903 37021 ft 437 kts 172°
2026-05-03 21:45 45.21963 1.45802 37019 ft 437 kts 172°
2026-05-03 21:46 45.16071 1.47685 37019 ft 437 kts 172°
2026-05-03 21:46 45.10151 1.49574 37020 ft 436 kts 173°
2026-05-03 21:47 45.04238 1.51455 37021 ft 435 kts 173°
2026-05-03 21:47 44.98319 1.53334 36980 ft 435 kts 172°
2026-05-03 21:48 44.92412 1.55206 37007 ft 435 kts 172°
2026-05-03 21:48 44.86514 1.57072 37002 ft 434 kts 172°
2026-05-03 21:49 44.80622 1.58930 37010 ft 434 kts 172°
2026-05-03 21:49 44.74691 1.60796 37001 ft 434 kts 172°
2026-05-03 21:50 44.68834 1.62636 36996 ft 434 kts 172°
2026-05-03 21:50 44.62937 1.64485 36995 ft 434 kts 172°
2026-05-03 21:51 44.57043 1.66330 36993 ft 433 kts 172°
2026-05-03 21:51 44.51164 1.68166 36993 ft 433 kts 172°
2026-05-03 21:52 44.45285 1.69997 36978 ft 433 kts 172°
2026-05-03 21:52 44.39409 1.71824 36970 ft 433 kts 172°
2026-05-03 21:53 44.33520 1.73651 36983 ft 434 kts 172°
2026-05-03 21:53 44.27607 1.75386 36982 ft 433 kts 174°
2026-05-03 21:54 44.21663 1.76739 36982 ft 432 kts 175°
2026-05-03 21:54 44.15711 1.77990 36982 ft 433 kts 175°
2026-05-03 21:55 44.09751 1.79266 36985 ft 434 kts 175°
2026-05-03 21:55 44.03783 1.80571 36985 ft 434 kts 175°
2026-05-03 21:56 43.97825 1.81881 36985 ft 434 kts 175°
2026-05-03 21:56 43.91853 1.82912 36982 ft 432 kts 179°
2026-05-03 21:57 43.85865 1.83473 36974 ft 431 kts 180°
2026-05-03 21:57 43.79881 1.83967 36962 ft 431 kts 180°
2026-05-03 21:58 43.73893 1.84507 36970 ft 431 kts 180°
2026-05-03 21:58 43.67898 1.85081 36967 ft 432 kts 180°
2026-05-03 21:59 43.61909 1.85663 36965 ft 432 kts 180°
2026-05-03 21:59 43.55915 1.86243 36966 ft 432 kts 180°
2026-05-03 22:00 43.49950 1.86816 36968 ft 433 kts 180°
2026-05-03 22:00 43.43949 1.87392 36974 ft 432 kts 180°
2026-05-03 22:01 43.37947 1.87967 36976 ft 433 kts 180°
2026-05-03 22:01 43.31938 1.88542 36981 ft 433 kts 180°
2026-05-03 22:02 43.25918 1.89118 36983 ft 433 kts 180°
2026-05-03 22:02 43.19902 1.89693 36980 ft 433 kts 180°
2026-05-03 22:03 43.13886 1.90267 36986 ft 434 kts 180°
2026-05-03 22:03 43.07863 1.90840 36989 ft 434 kts 180°
2026-05-03 22:04 43.01845 1.91411 36989 ft 433 kts 180°
2026-05-03 22:04 42.95825 1.91981 36986 ft 434 kts 180°
2026-05-03 22:05 42.89798 1.92551 36989 ft 435 kts 180°
2026-05-03 22:05 42.83760 1.93122 36995 ft 434 kts 180°
2026-05-03 22:06 42.77735 1.93690 36995 ft 434 kts 180°
2026-05-03 22:06 42.71710 1.94257 36997 ft 434 kts 180°
2026-05-03 22:07 42.65709 1.95347 37005 ft 438 kts 172°
2026-05-03 22:07 42.59768 1.97322 37009 ft 440 kts 170°
2026-05-03 22:08 42.53852 1.99470 37019 ft 440 kts 169°
2026-05-03 22:08 42.47946 2.01627 37029 ft 439 kts 169°
2026-05-03 22:09 42.42035 2.03761 37031 ft 439 kts 170°
2026-05-03 22:10 42.33173 2.06928 37041 ft 440 kts 170°
2026-05-03 22:10 42.27249 2.09031 37044 ft 441 kts 170°
2026-05-03 22:11 42.21316 2.11133 37040 ft 440 kts 169°
2026-05-03 22:11 42.15395 2.13229 37043 ft 440 kts 169°
2026-05-03 22:12 42.09474 2.15321 37047 ft 440 kts 169°
2026-05-03 22:12 42.03545 2.17412 37051 ft 440 kts 169°
2026-05-03 22:13 41.97617 2.19498 37048 ft 440 kts 170°
2026-05-03 22:13 41.91685 2.21582 37051 ft 441 kts 169°
2026-05-03 22:14 41.85750 2.23662 37047 ft 441 kts 169°
2026-05-03 22:14 41.79807 2.25742 37048 ft 441 kts 169°
2026-05-03 22:15 41.73870 2.27816 37035 ft 441 kts 169°
2026-05-03 22:15 41.67925 2.29892 37049 ft 441 kts 169°
2026-05-03 22:16 41.62017 2.31952 36607 ft 435 kts 169°
2026-05-03 22:16 41.59105 2.32966 36080 ft 431 kts 169°
2026-05-03 22:16 41.56219 2.33970 35606 ft 425 kts 169°
2026-05-03 22:16 41.53376 2.34958 35116 ft 420 kts 169°
2026-05-03 22:17 41.50557 2.35936 34574 ft 417 kts 169°
2026-05-03 22:17 41.47766 2.36902 34058 ft 413 kts 169°
2026-05-03 22:17 41.44987 2.37864 33454 ft 411 kts 169°
2026-05-03 22:17 41.42231 2.38817 32741 ft 411 kts 169°
2026-05-03 22:18 41.39460 2.39774 32057 ft 410 kts 169°
2026-05-03 22:18 41.36703 2.40726 31455 ft 409 kts 169°
2026-05-03 22:18 41.33956 2.41674 30898 ft 406 kts 169°
2026-05-03 22:18 41.31233 2.42614 30332 ft 403 kts 169°
2026-05-03 22:19 41.28526 2.43547 29897 ft 398 kts 169°
2026-05-03 22:19 41.25850 2.44468 29623 ft 397 kts 169°
2026-05-03 22:19 41.23198 2.45381 29360 ft 389 kts 169°
2026-05-03 22:19 41.20608 2.46273 28985 ft 382 kts 169°
2026-05-03 22:20 41.18049 2.47152 28585 ft 377 kts 169°
2026-05-03 22:20 41.15528 2.48017 28196 ft 372 kts 169°
2026-05-03 22:20 41.13026 2.48874 27802 ft 371 kts 169°
2026-05-03 22:20 41.10534 2.49727 27410 ft 368 kts 169°
2026-05-03 22:21 41.08062 2.50573 27022 ft 365 kts 169°
2026-05-03 22:21 41.05612 2.51411 26638 ft 362 kts 169°
2026-05-03 22:21 41.03176 2.52243 26239 ft 360 kts 169°
2026-05-03 22:21 41.00766 2.53066 25863 ft 357 kts 170°
2026-05-03 22:22 40.98372 2.53883 25478 ft 354 kts 170°
2026-05-03 22:22 40.95997 2.54693 25110 ft 352 kts 170°
2026-05-03 22:22 40.93630 2.55499 24732 ft 350 kts 170°
2026-05-03 22:22 40.91274 2.56301 24366 ft 349 kts 170°
2026-05-03 22:23 40.88925 2.57100 23991 ft 347 kts 170°
2026-05-03 22:23 40.86594 2.57892 23612 ft 345 kts 170°
2026-05-03 22:23 40.84272 2.58681 23196 ft 343 kts 170°
2026-05-03 22:23 40.81969 2.59463 22834 ft 341 kts 170°
2026-05-03 22:24 40.79684 2.60239 22465 ft 339 kts 170°
2026-05-03 22:24 40.77406 2.61011 22089 ft 337 kts 170°
2026-05-03 22:24 40.75142 2.61778 21726 ft 335 kts 170°
2026-05-03 22:24 40.72891 2.62540 21361 ft 333 kts 170°
2026-05-03 22:25 40.71403 2.63043 21120 ft 332 kts 170°
2026-05-03 22:25 40.69177 2.63796 20761 ft 330 kts 171°
2026-05-03 22:25 40.66959 2.64545 20407 ft 328 kts 171°
2026-05-03 22:25 40.64038 2.65532 19930 ft 326 kts 171°
2026-05-03 22:26 40.62556 2.66032 19691 ft 325 kts 171°
2026-05-03 22:26 40.60379 2.66766 19338 ft 323 kts 171°
2026-05-03 22:26 40.58208 2.67497 18965 ft 321 kts 171°
2026-05-03 22:26 40.56043 2.68226 18626 ft 321 kts 171°
2026-05-03 22:27 40.53878 2.68954 18269 ft 320 kts 171°
2026-05-03 22:27 40.51726 2.69678 17884 ft 319 kts 171°
2026-05-03 22:27 40.49618 2.70613 17517 ft 322 kts 160°
2026-05-03 22:27 40.47616 2.71945 17155 ft 323 kts 157°
2026-05-03 22:28 40.45655 2.73367 16803 ft 322 kts 156°
2026-05-03 22:28 40.43706 2.74796 16445 ft 320 kts 156°
2026-05-03 22:28 40.41765 2.76215 16090 ft 319 kts 156°
2026-05-03 22:28 40.39824 2.77628 15737 ft 318 kts 156°
2026-05-03 22:29 40.37895 2.79029 15386 ft 316 kts 156°
2026-05-03 22:29 40.35972 2.80423 15035 ft 315 kts 156°
2026-05-03 22:29 40.34062 2.81805 14701 ft 313 kts 156°
2026-05-03 22:29 40.32155 2.83183 14356 ft 312 kts 156°
2026-05-03 22:30 40.30262 2.84551 14022 ft 311 kts 156°
2026-05-03 22:30 40.28373 2.85914 13669 ft 309 kts 156°
2026-05-03 22:30 40.26548 2.87233 13540 ft 297 kts 156°
2026-05-03 22:30 40.24773 2.88518 13382 ft 288 kts 156°
2026-05-03 22:31 40.23025 2.89776 13032 ft 286 kts 156°
2026-05-03 22:31 40.21288 2.91024 12702 ft 285 kts 157°
2026-05-03 22:31 40.19555 2.92268 12412 ft 285 kts 157°
2026-05-03 22:31 40.17818 2.93515 12117 ft 284 kts 157°
2026-05-03 22:32 40.16090 2.94756 11825 ft 283 kts 156°
2026-05-03 22:32 40.14368 2.95992 11515 ft 282 kts 156°
2026-05-03 22:32 40.12654 2.97222 11214 ft 280 kts 156°
2026-05-03 22:32 40.10949 2.98445 10909 ft 279 kts 156°
2026-05-03 22:33 40.09250 2.99663 10599 ft 278 kts 156°
2026-05-03 22:33 40.07561 3.00872 10327 ft 276 kts 156°
2026-05-03 22:33 40.05878 3.02078 10030 ft 275 kts 156°
2026-05-03 22:33 40.04204 3.03275 9724 ft 274 kts 156°
2026-05-03 22:34 40.02538 3.04467 9418 ft 272 kts 156°
2026-05-03 22:34 40.00880 3.05652 9121 ft 271 kts 156°
2026-05-03 22:34 39.99227 3.06832 8836 ft 270 kts 155°
2026-05-03 22:34 39.97580 3.08008 8551 ft 269 kts 156°
2026-05-03 22:35 39.95938 3.09180 8281 ft 269 kts 156°
2026-05-03 22:35 39.94300 3.10340 7980 ft 267 kts 157°
2026-05-03 22:35 39.92589 3.11160 7695 ft 258 kts 175°
2026-05-03 22:35 39.90824 3.11246 7431 ft 253 kts 187°
2026-05-03 22:36 39.89075 3.11058 7164 ft 252 kts 189°
2026-05-03 22:36 39.87335 3.10827 6906 ft 251 kts 189°
2026-05-03 22:36 39.85607 3.10598 6643 ft 250 kts 189°
2026-05-03 22:36 39.83877 3.10373 6379 ft 249 kts 188°
2026-05-03 22:37 39.82164 3.10154 6089 ft 246 kts 188°
2026-05-03 22:37 39.80463 3.09941 5851 ft 245 kts 188°
2026-05-03 22:37 39.78766 3.09729 5591 ft 245 kts 188°
2026-05-03 22:37 39.77067 3.09518 5332 ft 244 kts 187°
2026-05-03 22:38 39.75385 3.09309 5069 ft 242 kts 187°
2026-05-03 22:38 39.73715 3.09103 4823 ft 240 kts 187°
2026-05-03 22:38 39.72085 3.08704 4605 ft 240 kts 205°
2026-05-03 22:38 39.70641 3.07506 4334 ft 255 kts 221°
2026-05-03 22:39 39.69469 3.05743 3771 ft 260 kts 234°
2026-05-03 22:39 39.68510 3.03769 3393 ft 256 kts 237°
2026-05-03 22:39 39.67592 3.01795 2932 ft 255 kts 237°
2026-05-03 22:39 39.66689 2.99843 2583 ft 250 kts 237°
2026-05-03 22:40 39.65815 2.97961 2491 ft 235 kts 236°
2026-05-03 22:40 39.65000 2.96223 2510 ft 216 kts 236°
2026-05-03 22:40 39.64240 2.94618 2501 ft 198 kts 235°
2026-05-03 22:40 39.63559 2.93183 2477 ft 175 kts 235°
2026-05-03 22:41 39.62950 2.91898 2492 ft 163 kts 234°
2026-05-03 22:41 39.62364 2.90659 2500 ft 161 kts 234°
2026-05-03 22:41 39.61778 2.89412 2397 ft 162 kts 235°
2026-05-03 22:41 39.61206 2.88189 2193 ft 154 kts 236°
2026-05-03 22:42 39.60664 2.87036 1971 ft 147 kts 234°
2026-05-03 22:42 39.60126 2.85899 1746 ft 156 kts 234°
2026-05-03 22:42 39.59466 2.84504 1500 ft 205 kts 235°
2026-05-03 22:42 39.58688 2.82823 1196 ft 225 kts 238°
2026-05-03 22:43 39.57881 2.81073 951 ft 215 kts 235°
2026-05-03 22:43 39.57135 2.79526 741 ft 192 kts 236°
2026-05-03 22:43 39.56456 2.78113 406 ft 177 kts 238°
2026-05-03 22:43 39.55851 2.76817 173 ft 160 kts 238°
2026-05-03 22:44 39.55308 2.75648 34 ft 140 kts 236°
2026-05-03 22:44 39.54884 2.74767 33 ft 89 kts 238°
2026-05-03 22:44 39.54648 2.74272 33 ft 45 kts 238°
2026-05-03 22:44 39.54555 2.73980 33 ft 30 kts 263°
2026-05-03 22:45 39.54555 2.73779 33 ft 11 kts 270°
2026-05-03 22:45 39.54557 2.73728 33 ft 0 kts 299°
2026-05-03 22:45 39.54560 2.73725 33 ft 1 kts 321°
2026-05-03 22:45 39.54569 2.73722 32 ft 2 kts 352°
2026-05-03 22:46 39.54586 2.73728 33 ft 3 kts 25°
2026-05-03 22:46 39.54611 2.73751 33 ft 5 kts 44°
2026-05-03 22:46 39.54636 2.73796 33 ft 7 kts 62°
2026-05-03 22:46 39.54664 2.73861 33 ft 9 kts 60°
2026-05-03 22:47 39.54702 2.73938 33 ft 11 kts 48°
2026-05-03 22:47 39.54753 2.73952 33 ft 2 kts 345°
2026-05-03 22:47 39.54775 2.73949 33 ft 5 kts
2026-05-03 22:47 39.54804 2.73970 33 ft 6 kts 39°
2026-05-03 22:48 39.54846 2.73994 33 ft 7 kts 355°
2026-05-03 22:48 39.54895 2.73966 33 ft 8 kts 328°
2026-05-03 22:48 39.54956 2.73918 32 ft 12 kts 328°
2026-05-03 22:48 39.55022 2.73867 33 ft 10 kts 328°
2026-05-03 22:49 39.55080 2.73821 33 ft 9 kts 329°
2026-05-03 22:49 39.55133 2.73780 33 ft 8 kts 328°
2026-05-03 22:49 39.55175 2.73738 33 ft 7 kts 307°
2026-05-03 22:49 39.55177 2.73689 33 ft 5 kts 243°
2026-05-03 22:50 39.55156 2.73640 33 ft 8 kts 239°
2026-05-03 22:50 39.55118 2.73558 32 ft 12 kts 238°
2026-05-03 22:50 39.55075 2.73467 33 ft 9 kts 239°
2026-05-03 22:50 39.55048 2.73433 33 ft 3 kts 189°
2026-05-03 22:51 39.55032 2.73435 33 ft 1 kts 170°
2026-05-03 22:51 39.55026 2.73436 33 ft 0 kts 168°
2026-05-03 22:51 39.55017 2.73439 33 ft 0 kts 166°
2026-05-03 22:51 39.55008 2.73442 33 ft 0 kts 167°
2026-05-03 22:52 39.55007 2.73442 33 ft 1 kts 164°
2026-05-03 22:52 39.55005 2.73443 33 ft 0 kts 165°